This is the latest recevied weather packets stored in our database for station/object DL7KAW-10. If no packets are shown the sender has not sent any weather packets the latest 10 day(s).
| Time | Temp. | Humidity | Pressure | Rain* | Wind** | Luminosity | Snow |
|---|---|---|---|---|---|---|---|
| 1788118286 | 22.22° C | 64% | 1012.5 hPa | - | - | - | - |
| 1788117386 | 22.22° C | 63% | 1012.5 hPa | - | - | - | - |
| 1788116486 | 22.22° C | 61% | 1012.3 hPa | - | - | - | - |
| 1788115586 | 22.22° C | 59% | 1012.1 hPa | - | - | - | - |
| 1788114685 | 22.22° C | 59% | 1012.2 hPa | - | - | - | - |
| 1788113785 | 22.22° C | 59% | 1011.9 hPa | - | - | - | - |
| 1788112885 | 22.22° C | 58% | 1011.7 hPa | - | - | - | - |
| 1788111985 | 22.78° C | 60% | 1011.6 hPa | - | - | - | - |
| 1788111085 | 22.78° C | 59% | 1011.4 hPa | - | - | - | - |
| 1788110185 | 22.78° C | 64% | 1011.4 hPa | - | - | - | - |
| 1788109285 | 22.78° C | 67% | 1011.1 hPa | - | - | - | - |
| 1788108384 | 22.78° C | 66% | 1011.1 hPa | - | - | - | - |
| 1788107484 | 22.78° C | 66% | 1010.9 hPa | - | - | - | - |
| 1788106584 | 22.78° C | 65% | 1010.7 hPa | - | - | - | - |
| 1788105684 | 22.22° C | 65% | 1010.6 hPa | - | - | - | - |
| 1788104784 | 22.78° C | 65% | 1010.5 hPa | - | - | - | - |
| 1788103884 | 22.22° C | 66% | 1010.5 hPa | - | - | - | - |
| 1788102999 | 22.22° C | 65% | 1010.5 hPa | - | - | - | - |
| 1788102084 | 22.22° C | 65% | 1010.3 hPa | - | - | - | - |
| 1788101184 | 22.22° C | 64% | 1010.3 hPa | - | - | - | - |
| 1788100284 | 22.22° C | 65% | 1010.2 hPa | - | - | - | - |
| 1788099383 | 22.22° C | 65% | 1009.9 hPa | - | - | - | - |
| 1788098483 | 22.22° C | 64% | 1009.9 hPa | - | - | - | - |
| 1788097583 | 22.22° C | 64% | 1009.7 hPa | - | - | - | - |
| 1788096683 | 22.22° C | 64% | 1009.7 hPa | - | - | - | - |
* Rain since midnight (hover to see other rain measurements)
** Current wind speed in m/s (hover to see current wind gust speed)